Flag for Poland Weather past 2 weeks in Wroclaw, Poland

48 °F


Feels Like: 43 °F
Forecast: 38 / 53 °F
Wind: 13 mph from Southeast

Location: Wroclaw Ii

Current Time: Oct 9, 2015 at 11:15:52 PM

Latest Report: Oct 9, 2015 at 11:00 PM

Visibility: 10 mi

Pressure: 30.24 "Hg

Humidity: 43%

Dew point: 27 °F

Location of WroclawLocation

Historic Weather in Wroclaw — Graph


Wroclaw temperature yesterday

Maximum temperature yesterday: 55 °F (at 3:00 PM)
Minimum temperature yesterday: 41 °F (at 5:30 AM)
Average temperature yesterday: 49 °F

Past Weeks' High & Low Weather Summary

High75 °F (Oct 4, 3:00 PM)94% (Sep 25, 1:00 PM)30.63 "Hg (Sep 25, 1:00 PM)
Low32 °F (Oct 1, 6:00 AM)29% (Oct 2, 3:00 PM)29.86 "Hg (Oct 6, 3:30 PM)
Average55 °F65%30.24 "Hg
* Reported Sep 24 10:00 PM — Oct 9 10:00 PM, Wroclaw, Weather by CustomWeather, © 2015

Note: Actual official high and low records may vary slightly from our data, if they occured in-between our weather recording intervals... More about our weather records


Wroclaw weather history for previous 24 hours

Time TempWeatherWind HumidityBarometerVisibility
10:00 PM
Fri, Oct 9
50 °FClear.13 mph37%30.24 "Hg10 mi
9:30 PM50 °FClear.12 mph37%30.24 "Hg10 mi
9:00 PM50 °FClear.13 mph37%30.24 "Hg10 mi
8:30 PM50 °FClear.14 mph37%30.24 "Hg10 mi
8:00 PM50 °FClear.10 mph37%30.24 "Hg10 mi
7:30 PM52 °FClear.9 mph35%30.21 "Hg10 mi
7:00 PM52 °FSunny.9 mph35%30.21 "Hg10 mi
6:30 PM52 °FSunny.9 mph38%30.21 "Hg10 mi
6:00 PM54 °FSunny.10 mph35%30.21 "Hg10 mi
5:30 PM54 °FSunny.9 mph38%30.18 "Hg10 mi
4:30 PM55 °FSunny.12 mph38%30.18 "Hg10 mi
4:00 PM55 °FSunny.8 mph38%30.18 "Hg10 mi
3:30 PM55 °FSunny.9 mph38%30.18 "Hg10 mi
3:00 PM55 °FPassing clouds.8 mph38%30.18 "HgN/A
2:30 PM55 °FSunny.8 mph38%30.18 "Hg10 mi
2:00 PM55 °FPassing clouds.9 mph38%30.18 "HgN/A
1:30 PM54 °FSunny.9 mph38%30.18 "Hg10 mi
1:00 PM54 °FSunny.13 mph38%30.18 "Hg10 mi
12:30 PM52 °FSunny.14 mph41%30.21 "Hg10 mi
12:00 PM50 °FPassing clouds.9 mph43%30.21 "HgN/A
11:30 AM48 °FSunny.10 mph46%30.21 "Hg10 mi
11:00 AM46 °FSunny.7 mph53%30.21 "Hg10 mi
10:30 AM45 °FSunny.6 mph57%30.21 "Hg10 mi
10:00 AM45 °FPassing clouds.6 mph57%30.21 "HgN/A
9:30 AM43 °FSunny.7 mph61%30.21 "Hg10 mi
9:00 AM43 °FPassing clouds.6 mph61%30.18 "HgN/A
8:30 AM43 °FSunny.7 mph61%30.18 "Hg10 mi
8:00 AM43 °FClear.5 mph61%30.18 "Hg10 mi
7:30 AM43 °FClear.6 mph66%30.18 "Hg10 mi
7:00 AM43 °FClear.6 mph66%30.15 "Hg10 mi
6:30 AM45 °FPassing clouds.6 mph61%30.15 "HgN/A
6:00 AM45 °FPassing clouds.5 mph66%30.15 "HgN/A
5:30 AM45 °FPassing clouds.7 mph66%30.15 "HgN/A
5:00 AM45 °FPassing clouds.5 mph66%30.15 "HgN/A
4:30 AM45 °FPassing clouds.6 mph66%30.15 "HgN/A
4:00 AM45 °FClear.5 mph71%30.15 "Hg10 mi
3:30 AM45 °FClear.6 mph71%30.15 "Hg10 mi
3:00 AM45 °FClear.7 mph71%30.15 "Hg10 mi
2:30 AM46 °FClear.7 mph66%30.15 "Hg10 mi
2:00 AM45 °FClear.7 mph71%30.15 "Hg10 mi
1:30 AM46 °FClear.5 mph66%30.12 "Hg10 mi
1:00 AM48 °FClear.5 mph66%30.12 "Hg10 mi
12:30 AM50 °FClear.6 mph62%30.15 "Hg10 mi
12:00 AM50 °FClear.5 mph58%30.12 "Hg10 mi
11:30 PM
Thu, Oct 8
48 °FPassing clouds.5 mph62%30.12 "HgN/A
11:00 PM50 °FPassing clouds.6 mph82%30.12 "HgN/A
Weather by CustomWeather, © 2015

See weather overviewHow to use our weather pages